Location: Hernandez
(10.3704°N, 67.2181°W)
Time: 11:46:42
(UTC+00:00)

ADEOS Rocket - Visible Passes

Search period start: 17 July 2024 00:00
Search period end: 27 July 2024 00:00
Orbit: 858 x 1306 km, 98.7° (Epoch: 16 July)

Date Brightness Start Highest point End Pass type
(mag) Time Alt. Az. Time Alt. Az. Time Alt. Az.
18 Jul 6.1 00:29:40 10° SW 00:32:59 13° W 00:36:16 10° WNW visible
18 Jul 5.0 23:36:55 10° SSW 23:43:58 39° WSW 23:50:49 10° NW visible
20 Jul 6.3 00:39:11 10° WSW 00:40:10 10° W 00:41:09 10° W visible
20 Jul 5.2 23:44:28 10° SSW 23:51:10 33° WSW 23:57:39 10° NW visible
22 Jul 5.5 23:52:06 10° SSW 23:58:22 27° WSW 00:04:24 10° NW visible
24 Jul 5.7 23:59:51 10° SSW 00:05:33 23° WSW 00:11:03 10° NW visible
25 Jul 5.9 09:47:47 10° E 09:48:51 11° E 09:49:56 10° ESE visible
25 Jul 4.1 23:09:01 10° S 23:16:36 62° WSW 23:23:41 10° NNW visible
